GFSNGP_700_temp_132.txt.gz
Temp
-1 -1 -1 -1 -2 -3 -2 -2 -3 -2 -1 -2 -1 -2 -2 -2 -2 -2 -2 -2 -2 -1 -0 0 0 1 1 1 0 0 1 1 0 0 1 2 1 2 2 1 1 1 2 1
1 0 -1 0 -0 -1 -1 -1 -1 -1 -0 -1 -1 -2 -2 -1 -1 -2 -2 -2 -2 -1 -1 -1 -0 0 1 1 1 1 1 1 1 1 1 1 1 1 1 2 2 1 1 1
-1 -0 -1 0 2 1 1 0 -0 0 0 0 -1 -2 -2 -2 -2 -2 -1 -1 -1 -1 -1 -1 -1 -1 -0 0 1 1 1 1 1 1 1 1 1 1 2 2 1 1 1 1
-1 -1 -0 3 2 2 1 2 2 1 1 0 0 -0 -1 -2 -2 -2 -2 -1 -1 -1 -1 -1 -1 -1 -0 -0 -0 -0 -0 0 0 1 0 0 0 0 1 1 1 1 1 1
-2 -3 2 2 3 2 1 2 2 2 1 1 1 1 1 -0 -1 -1 -1 -1 -1 -1 -1 -1 -1 -1 -1 -1 -1 -1 -1 -1 -1 -0 -0 0 0 0 0 0 0 1 0 0
-2 -3 1 3 2 2 2 2 3 2 2 1 1 1 0 0 0 -0 -1 -1 -1 -1 -1 -1 -1 -1 -1 -1 -1 -1 -1 -0 -0 -0 -0 -0 -0 -0 -0 -1 -1 -1 -0 -0
-2 -1 3 3 2 2 1 3 2 2 2 2 1 1 1 1 0 -0 0 0 -0 -1 -1 -1 -1 -1 -1 -1 -1 -1 -1 -1 -1 -1 -1 -1 -1 -1 -1 -1 -1 -0 -0 -0
-0 -2 1 3 3 2 2 2 2 2 2 2 2 1 1 1 1 0 -0 -0 -0 0 -0 -0 -1 -1 -1 -2 -2 -1 -1 -1 -1 -1 -1 -1 -1 -1 -1 -1 -1 -1 -1 -1
2 3 3 3 3 2 2 2 1 1 1 2 2 2 2 1 1 1 1 1 0 -0 0 0 -0 -1 -1 -1 -1 -1 -1 -1 -2 -1 -1 -1 -1 -2 -2 -2 -2 -2 -2 -2
1 4 3 2 2 2 1 1 1 1 1 1 2 2 2 2 2 2 1 1 1 1 1 1 0 -0 -1 -1 -1 -2 -2 -1 -1 -1 -1 -1 -1 -1 -1 -1 -1 -1 -1 -1
-0 4 3 3 2 2 1 1 1 1 1 1 1 2 1 2 2 2 2 1 1 1 1 1 1 1 1 -0 -1 -1 -2 -2 -2 -2 -2 -2 -1 -1 -2 -2 -2 -2 -2 -2
2 3 1 2 2 1 1 1 1 1 1 0 1 1 1 1 1 2 2 2 1 1 1 1 1 1 1 1 0 -0 -1 -2 -2 -2 -2 -2 -2 -2 -2 -2 -2 -2 -2 -2
4 3 1 2 2 2 1 1 1 0 0 0 1 1 1 1 1 1 1 1 1 1 1 1 1 1 1 0 0 -0 -1 -1 -1 -1 -2 -2 -2 -2 -2 -3 -3 -3 -3 -3
3 3 3 2 2 1 2 2 2 1 1 1 1 1 1 1 1 1 1 -0 1 1 1 1 1 0 0 -0 -0 -1 -1 -1 -1 -2 -2 -2 -2 -2 -3 -3 -3 -3 -4 -4
4 3 2 2 2 2 2 2 2 1 1 1 1 1 1 1 0 0 -0 0 0 0 0 0 0 -0 -0 -1 -1 -1 -1 -2 -2 -2 -2 -3 -3 -3 -3 -3 -4 -4 -4 -5
3 4 4 4 3 3 2 2 2 2 1 0 0 -0 -0 -0 -0 -0 0 1 0 -1 -1 -0 -0 -1 -1 -1 -1 -2 -2 -2 -3 -3 -3 -4 -4 -4 -4 -4 -5 -5 -5 -6
5 4 3 3 3 2 2 3 3 2 2 2 1 0 -0 -1 -1 -0 0 -0 -1 -1 -1 -1 -1 -1 -1 -2 -2 -2 -3 -3 -4 -4 -4 -4 -5 -5 -5 -5 -6 -6 -7 -7
3 3 2 2 2 2 3 3 3 3 2 1 1 1 1 1 0 -1 -1 -1 -2 -1 -1 -2 -2 -2 -2 -2 -3 -3 -4 -4 -4 -4 -5 -5 -5 -6 -6 -6 -7 -7 -8 -8
2 2 1 2 2 2 1 1 0 1 0 0 0 1 1 1 1 -1 -2 -2 -2 -2 -3 -3 -2 -3 -3 -3 -3 -4 -4 -5 -5 -5 -6 -6 -6 -6 -7 -7 -8 -8 -8 -9
1 1 1 0 0 0 -0 -0 -0 -0 0 1 0 0 0 0 0 -1 -2 -2 -2 -3 -3 -3 -3 -3 -3 -4 -4 -5 -5 -6 -6 -6 -6 -7 -7 -7 -8 -8 -8 -9 -9 -10
2 1 1 0 -0 -1 -1 -1 -1 -1 -1 -1 -1 -0 -0 0 0 -1 -1 -2 -3 -4 -4 -4 -3 -4 -4 -5 -5 -6 -6 -6 -7 -7 -7 -7 -7 -8 -8 -9 -9 -10 -10 -11
1 1 0 -0 -1 -1 -2 -2 -2 -2 -2 -1 -1 -1 -1 -1 -1 -2 -3 -3 -4 -4 -5 -5 -4 -5 -5 -6 -6 -6 -7 -7 -7 -7 -7 -8 -8 -9 -10 -10 -10 -11 -11 -12
-0 -0 -1 -2 -2 -2 -3 -3 -3 -2 -2 -2 -2 -2 -2 -2 -2 -3 -4 -4 -5 -5 -5 -5 -5 -5 -6 -6 -7 -7 -7 -8 -8 -8 -8 -9 -9 -10 -10 -11 -11 -12 -12 -13
-1 -1 -2 -2 -3 -3 -3 -3 -3 -3 -3 -2 -3 -3 -2 -2 -2 -3 -4 -5 -5 -5 -6 -6 -6 -7 -7 -7 -8 -8 -8 -8 -8 -9 -9 -10 -10 -11 -11 -11 -12 -13 -14 -14
-2 -2 -3 -3 -3 -4 -3 -3 -3 -3 -3 -3 -4 -4 -3 -3 -3 -4 -5 -5 -6 -6 -6 -7 -7 -7 -8 -8 -8 -8 -9 -9 -9 -9 -10 -11 -11 -11 -12 -13 -14 -14 -15 -15
-4 -3 -3 -4 -4 -4 -4 -5 -5 -5 -5 -5 -5 -5 -5 -5 -5 -5 -6 -7 -7 -7 -7 -8 -8 -8 -8 -9 -9 -9 -9 -9 -9 -10 -11 -11 -12 -12 -13 -14 -15 -15 -16 -17
-5 -4 -4 -5 -5 -5 -6 -6 -6 -6 -6 -6 -6 -6 -6 -6 -7 -7 -7 -8 -8 -8 -8 -9 -9 -9 -9 -9 -10 -9 -9 -10 -10 -11 -12 -12 -13 -14 -14 -15 -16 -17 -17 -18

GFSNGP_700_temp_135.txt.gz
Temp
-1 -1 -2 -0 -1 -3 -3 -2 -3 -0 -1 -0 -2 -3 -1 -1 -0 -1 -0 -0 -1 -1 -0 0 -0 0 0 -0 -0 -0 -0 0 0 0 1 2 2 3 3 2 3 2 2 2
1 0 0 0 1 -0 -2 -2 -1 0 1 1 -0 -1 -1 -1 -1 -0 -0 -0 -0 -0 -0 -0 -0 -0 -0 0 -0 -1 -1 -1 -1 -0 -0 1 1 1 1 1 1 1 0 0
-3 0 -0 0 4 3 3 2 1 1 0 1 0 0 -0 -1 -1 -1 -0 -1 -0 -0 -0 -0 -0 -0 -0 -0 -0 -0 -1 -0 -0 -0 -1 -0 -0 0 0 0 0 0 1 1
-1 -1 0 4 3 3 3 3 3 3 2 2 1 0 0 0 -0 -1 -1 -0 -0 -0 -0 -0 -1 -1 -1 -0 -0 -0 -0 -0 -0 -0 -0 -0 0 0 1 0 1 1 1 1
-3 -1 2 3 4 4 3 4 3 3 3 2 2 2 1 1 0 -0 -1 -1 -1 -1 -0 -0 -0 -0 -0 -0 -0 -0 -0 -0 -0 0 -0 0 0 0 0 0 0 1 0 0
-4 -3 2 4 4 3 2 3 3 2 2 2 2 2 2 2 2 1 0 -0 -1 -1 -1 -1 -1 -1 -1 -0 -0 -0 -0 -0 0 -0 0 0 0 0 -0 0 0 0 -0 -0
-4 -3 2 4 3 3 2 3 2 2 2 2 2 1 2 2 2 2 2 1 0 -0 -0 -1 -1 -1 -1 -1 -0 -0 0 0 0 0 0 0 -0 0 0 0 -0 0 0 0
-2 -3 -1 4 3 3 3 2 2 2 1 1 1 1 1 1 1 1 1 1 1 1 1 0 -0 -0 -1 -0 -0 -0 -0 -0 0 -0 -0 -0 -0 0 1 1 1 1 1 1
1 2 4 3 3 3 2 2 2 1 1 1 1 1 1 1 1 1 1 1 1 1 1 1 1 1 0 -0 -0 -0 -1 -1 -1 -1 -1 -0 -0 0 0 0 0 0 -0 -0
0 3 3 2 3 2 2 1 1 1 1 1 1 0 0 0 0 1 1 1 1 1 1 2 1 1 1 1 0 -0 -0 -1 -1 -1 -1 -1 -1 -1 -1 -1 -1 -1 -1 -1
1 4 3 2 2 2 2 2 2 1 1 1 1 2 1 1 1 0 1 1 1 1 0 1 1 1 1 1 1 0 -1 -1 -1 -2 -2 -2 -2 -1 -1 -1 -1 -1 -1 -2
3 3 1 2 2 2 2 2 2 2 1 1 1 1 1 1 1 1 1 1 1 1 1 0 1 1 1 1 0 0 -0 -1 -1 -1 -1 -1 -1 -1 -2 -2 -2 -2 -2 -2
4 3 2 3 2 2 1 2 2 2 3 2 2 2 2 1 0 0 1 1 1 0 0 1 1 1 0 0 0 -0 -1 -1 -1 -2 -2 -2 -2 -2 -2 -2 -2 -2 -3 -3
4 3 3 3 2 2 2 2 2 3 3 3 2 3 2 2 2 1 1 1 0 0 1 0 0 0 0 0 -0 -0 -1 -1 -1 -2 -2 -2 -3 -3 -3 -3 -3 -3 -4 -4
3 2 2 2 2 2 2 2 2 3 2 3 2 2 2 2 2 1 1 1 2 1 1 0 -0 0 0 -0 -0 -1 -1 -1 -2 -2 -2 -3 -3 -3 -3 -4 -4 -4 -4 -4
2 2 3 3 3 3 2 2 2 3 3 2 2 2 1 1 1 1 1 1 1 1 0 -0 -0 -0 -1 -1 -1 -1 -1 -2 -2 -2 -3 -3 -3 -4 -4 -4 -4 -4 -4 -5
2 3 3 2 2 2 3 3 3 3 3 3 2 1 1 1 1 1 1 0 0 -0 -1 -1 -1 -1 -1 -1 -1 -1 -2 -2 -2 -3 -3 -3 -4 -4 -4 -5 -5 -5 -5 -5
2 3 2 2 2 2 1 2 2 2 3 2 2 2 1 0 0 -0 0 -0 -1 -1 -1 -2 -2 -2 -2 -2 -2 -2 -2 -3 -3 -3 -4 -4 -4 -5 -5 -5 -5 -6 -6 -6
1 1 1 1 1 1 1 1 1 1 1 1 1 1 0 0 0 -0 -0 -0 -1 -1 -1 -3 -3 -3 -3 -3 -3 -3 -3 -4 -4 -4 -4 -5 -5 -5 -6 -6 -6 -6 -7 -7
0 0 0 0 0 0 -1 -0 -0 -1 -1 -0 0 0 0 -1 -1 -1 -1 -1 -1 -2 -3 -3 -4 -4 -4 -4 -4 -4 -4 -4 -5 -5 -5 -6 -6 -6 -7 -7 -7 -7 -8 -8
0 0 0 0 -0 -0 -1 -2 -1 -1 -1 -1 -1 -1 -1 -1 -1 -1 -1 -0 -1 -2 -3 -3 -4 -5 -5 -4 -4 -4 -5 -5 -6 -6 -6 -6 -7 -7 -7 -7 -8 -8 -9 -9
-1 -0 -0 -0 -0 -1 -2 -2 -2 -3 -2 -2 -2 -2 -2 -1 -1 -1 -1 -1 -1 -3 -3 -4 -4 -5 -6 -5 -6 -6 -6 -6 -6 -7 -7 -7 -7 -8 -8 -8 -9 -9 -10 -10
-1 -1 -1 -1 -2 -2 -2 -3 -3 -3 -3 -3 -3 -3 -2 -2 -2 -2 -2 -2 -3 -4 -4 -5 -5 -6 -6 -6 -6 -7 -7 -7 -7 -8 -8 -8 -8 -8 -9 -9 -10 -10 -11 -11
-3 -3 -4 -3 -3 -3 -4 -4 -4 -4 -4 -3 -3 -3 -3 -3 -3 -3 -3 -3 -3 -4 -4 -5 -6 -6 -7 -7 -7 -7 -8 -8 -8 -8 -9 -9 -9 -9 -10 -10 -11 -11 -12 -13
-5 -5 -6 -6 -4 -4 -4 -4 -4 -4 -4 -4 -4 -4 -4 -4 -4 -4 -5 -4 -4 -5 -6 -7 -7 -7 -7 -8 -8 -8 -8 -9 -9 -9 -9 -9 -10 -10 -11 -11 -12 -13 -13 -14
-5 -6 -7 -7 -7 -6 -6 -5 -5 -5 -5 -5 -5 -5 -5 -5 -5 -5 -5 -6 -6 -7 -7 -8 -8 -8 -8 -9 -9 -9 -9 -9 -9 -9 -9 -10 -10 -11 -12 -12 -13 -14 -15 -16
-6 -6 -7 -7 -8 -7 -7 -7 -6 -6 -6 -5 -6 -6 -6 -6 -7 -7 -7 -8 -8 -8 -8 -9 -9 -9 -9 -9 -10 -10 -10 -10 -10 -10 -10 -11 -11 -12 -13 -13 -14 -15 -16 -17

GFSNGP_700_temp_138.txt.gz
Temp
0 0 -1 -1 -1 -3 -3 -1 -3 1 1 2 0 -1 -2 -1 -1 -0 0 0 -0 0 0 0 0 1 0 0 0 -0 0 0 1 0 2 2 2 2 2 2 3 2 3 2
1 1 0 1 1 1 -1 -1 -0 1 3 2 1 1 -0 -1 -1 -0 -0 -0 -0 -0 -0 -0 -0 0 0 0 0 0 -0 -0 0 0 0 0 1 1 2 2 1 2 2 2
-1 -0 -1 1 5 5 4 3 3 2 3 2 2 1 1 0 -0 -0 -0 -0 -0 0 -0 -0 -0 -0 -0 -0 -0 0 0 -0 -1 -0 -0 -0 -0 0 0 0 0 0 0 0
-2 -0 -4 4 4 4 4 4 3 4 3 2 3 2 2 1 1 0 -0 -0 -0 -0 0 0 -0 -0 -0 -1 -0 -0 -0 -0 -0 -1 -1 -1 -0 0 -0 -0 0 0 0 0
-3 -3 2 3 4 4 4 5 4 4 3 3 3 3 2 2 1 1 1 0 -0 -0 -0 -0 -0 -0 -0 -1 -1 -1 -0 -0 -0 -0 -0 -0 -0 -1 -1 -0 -0 0 0 1
-5 -4 -2 3 3 3 3 4 4 3 2 2 2 2 3 3 2 1 1 1 1 0 -0 -0 -0 -0 -0 -0 -1 -1 -0 -0 -0 0 0 0 -0 -0 -0 -0 -0 0 1 1
-3 -4 1 4 3 2 2 4 3 3 3 2 2 2 2 2 2 2 1 1 1 1 1 0 -0 -1 -1 -1 -1 -1 -1 -1 -1 -1 -1 -0 -1 -0 -0 -0 -0 0 -0 -0
-3 -4 -2 4 3 3 3 3 3 2 2 2 2 2 2 2 3 2 2 2 2 1 1 1 1 0 -0 -1 -1 -1 -1 -1 -1 -1 -1 -1 -1 -1 -1 -1 -1 -0 -1 -1
1 4 4 4 3 3 2 2 2 2 1 2 2 2 1 2 2 2 2 2 2 2 2 1 1 1 1 1 -0 -1 -1 -1 -1 -1 -1 -1 -1 -1 -1 -1 -1 -1 -1 -0
-1 3 3 2 2 1 1 1 1 1 1 1 2 2 2 2 2 2 2 2 2 2 2 2 1 1 1 1 1 0 0 -0 -1 -1 -1 -0 -1 -0 -0 -0 0 0 0 0
-1 2 2 1 1 1 2 2 1 2 1 1 1 2 2 2 2 2 2 2 2 2 2 2 2 1 1 1 1 1 1 1 0 -0 -0 -0 -0 -0 -0 -0 -0 -0 -0 -0
3 4 1 2 1 1 2 2 1 1 1 1 1 2 2 2 2 2 1 1 2 2 2 2 2 2 2 2 1 1 1 1 1 0 0 -0 -0 -1 -1 -1 -1 -1 -1 -1
2 2 0 2 2 2 0 0 1 2 2 2 2 2 2 2 1 2 2 1 1 1 1 2 2 1 1 1 1 1 1 1 1 1 0 0 -0 -1 -1 -1 -1 -1 -2 -2
0 0 1 2 2 2 2 1 1 1 2 2 2 2 2 2 2 2 2 1 0 1 1 2 1 1 1 1 1 1 1 1 0 0 -0 -1 -1 -1 -2 -2 -2 -3 -3 -3
0 1 0 0 1 1 2 2 2 2 3 2 1 1 2 2 2 2 1 1 1 1 1 1 1 0 0 0 0 -0 -0 -0 -1 -1 -1 -2 -2 -2 -2 -2 -3 -3 -3 -4
0 0 1 1 1 1 2 2 2 2 2 3 2 1 1 1 1 1 1 1 1 1 -0 -0 0 -0 -0 -1 -1 -1 -1 -1 -1 -1 -2 -2 -2 -3 -3 -3 -3 -4 -4 -4
-0 1 0 1 1 1 1 1 2 2 2 2 1 1 2 2 1 1 0 0 0 -0 -0 -1 -1 -1 -1 -2 -2 -2 -2 -2 -2 -2 -3 -3 -3 -3 -3 -4 -4 -5 -5 -5
-0 -0 0 -0 0 1 1 1 1 1 2 1 1 1 1 1 1 -0 -1 -1 -0 -0 -0 -1 -1 -2 -2 -2 -2 -3 -2 -2 -2 -3 -3 -3 -4 -4 -4 -5 -5 -5 -6 -6
-2 -2 -1 -1 -1 -0 0 0 0 1 1 0 -0 -0 0 -0 -0 -1 -1 -1 -1 -1 -1 -1 -2 -2 -2 -3 -3 -3 -3 -3 -3 -4 -4 -4 -5 -5 -5 -6 -6 -6 -6 -7
-2 -2 -1 -1 -1 -1 -1 -1 -0 -1 -1 -1 -1 -1 -0 -1 -0 -1 -1 -1 -1 -1 -1 -1 -2 -3 -3 -4 -4 -4 -4 -4 -4 -5 -5 -5 -6 -6 -6 -6 -7 -7 -7 -8
-2 -2 -1 -1 -1 -1 -1 -1 -2 -2 -2 -2 -2 -2 -2 -2 -2 -2 -1 -1 -1 -1 -1 -2 -2 -3 -4 -4 -5 -5 -5 -5 -5 -5 -6 -6 -6 -7 -7 -8 -8 -8 -8 -8
-4 -4 -3 -2 -3 -3 -2 -2 -2 -3 -3 -3 -3 -3 -3 -2 -2 -2 -2 -2 -1 -2 -2 -2 -3 -4 -5 -5 -5 -6 -6 -6 -6 -6 -6 -7 -7 -8 -8 -8 -8 -9 -9 -9
-5 -4 -4 -5 -4 -3 -3 -3 -3 -4 -4 -4 -4 -3 -3 -3 -3 -2 -2 -2 -2 -2 -2 -3 -4 -5 -6 -6 -6 -7 -7 -7 -7 -8 -8 -8 -8 -9 -9 -9 -9 -9 -10 -10
-6 -5 -5 -6 -6 -6 -5 -5 -5 -5 -5 -5 -4 -4 -3 -3 -3 -3 -3 -3 -3 -4 -4 -4 -5 -6 -6 -7 -7 -8 -8 -8 -8 -8 -9 -9 -9 -9 -9 -9 -10 -10 -11 -11
-6 -6 -6 -6 -6 -5 -7 -7 -7 -7 -6 -6 -6 -6 -5 -4 -4 -4 -4 -4 -5 -5 -5 -6 -6 -6 -7 -8 -8 -8 -9 -9 -9 -9 -9 -9 -9 -9 -10 -10 -11 -11 -12 -12
-7 -6 -6 -6 -6 -6 -7 -7 -7 -7 -7 -7 -7 -6 -5 -5 -6 -6 -6 -6 -6 -6 -6 -7 -7 -8 -8 -8 -9 -9 -10 -10 -10 -10 -10 -10 -10 -10 -11 -11 -12 -12 -13 -13
-7 -7 -7 -7 -6 -7 -7 -7 -7 -7 -7 -7 -7 -6 -7 -7 -6 -6 -6 -7 -7 -8 -8 -9 -9 -9 -9 -10 -10 -10 -10 -10 -10 -10 -10 -10 -11 -11 -12 -12 -12 -13 -13 -13

GFSNGP_700_temp_141.txt.gz
Temp
-0 1 -1 -0 -0 -1 -3 -2 -3 2 2 3 1 0 1 -0 -0 -0 -0 0 -0 -0 -0 -0 0 0 0 0 1 1 0 0 0 -0 1 1 0 1 1 1 1 2 2 2
1 1 1 1 1 0 0 -1 -1 1 3 2 2 2 1 1 0 -0 -1 0 0 0 -0 -0 -0 -0 -0 -0 -0 0 1 1 0 -0 0 0 0 1 1 1 2 2 2 2
-0 0 1 2 5 5 5 4 4 2 4 3 3 3 2 1 1 0 -0 -1 -0 0 -0 -0 -1 -1 -0 -0 -0 -0 -0 0 0 -0 -0 -0 0 0 -0 -1 -0 1 0 1
-2 0 -3 5 4 4 4 4 4 4 4 3 3 3 3 2 2 2 1 -0 -0 -1 -1 -0 -0 -0 -1 -1 -0 -0 -0 -0 -0 -0 -1 -1 -0 -0 -1 -0 -0 -0 0 0
-3 -4 2 4 4 4 4 5 4 4 4 3 3 3 3 4 3 2 2 1 1 -0 -1 -1 -1 -0 -0 -1 -1 -0 -0 -0 -0 -0 -0 -0 -0 -1 -1 -0 -0 -0 -0 -0
-5 -4 -2 4 4 3 2 4 4 4 3 3 2 3 3 3 3 3 3 2 2 1 1 0 -0 -0 -1 -1 -1 -1 -1 -0 -0 -0 -0 -0 -0 -0 -0 -0 0 -0 -0 -1
-4 -4 1 4 4 2 2 4 4 4 3 3 2 2 2 2 2 3 3 3 2 2 1 1 1 0 0 -0 -1 -1 -1 -1 -1 -1 -1 -0 -0 -1 -1 -1 -1 -1 -1 -1
-3 -5 -1 4 3 3 3 2 1 2 1 2 2 2 2 2 2 2 2 3 3 2 2 2 1 1 1 1 0 -0 -0 -1 -1 -1 -1 -1 -1 -1 -1 -1 -1 -1 -1 -1
0 2 3 3 3 2 2 2 1 0 -0 0 1 2 1 2 2 2 2 2 2 2 2 2 2 2 2 1 1 1 0 -0 -0 -1 -1 -1 -1 -1 -1 -1 -1 -1 -1 -1
-2 1 1 1 1 1 1 -0 0 0 -0 -0 1 1 2 2 1 2 1 2 2 2 2 2 2 2 2 2 2 2 1 1 0 -0 -0 -1 -1 -1 -1 -1 -1 -1 -1 -1
0 2 0 1 1 -0 0 0 1 1 1 1 0 0 1 2 1 1 1 1 1 1 2 1 1 1 1 1 1 2 2 2 2 1 0 -0 -0 -0 -0 -0 -0 -0 -0 -0
1 3 -0 -1 0 -0 -0 1 0 0 0 1 -0 1 -0 1 1 1 1 1 1 1 1 1 1 2 1 1 1 1 1 1 1 1 1 1 1 0 -0 -0 -0 -0 -0 -1
1 1 -0 0 1 -0 -1 -1 0 0 1 1 1 1 1 1 1 1 1 1 2 1 0 0 1 1 1 1 1 1 1 1 1 1 0 0 -0 -1 -1 -1 -1 -1 -1 -1
-2 -1 -0 -1 -1 -1 -0 -0 -1 0 1 1 2 1 1 1 1 1 2 1 1 1 1 0 1 1 1 1 0 0 0 0 0 -0 0 -0 -1 -1 -1 -1 -1 -2 -2 -2
0 -1 -1 -2 -1 -1 -1 -1 -0 1 1 2 2 1 1 1 2 1 0 0 0 1 1 1 0 0 -0 0 0 -0 -0 -0 -0 -0 -0 -1 -1 -1 -2 -2 -2 -2 -3 -3
-0 -2 -2 -1 -1 -1 -1 -1 -0 1 1 2 2 2 2 1 1 2 1 0 0 1 0 -1 -1 -1 -1 -0 -0 -1 -1 -1 -1 -1 -1 -2 -2 -2 -3 -3 -3 -3 -4 -4
-2 -2 -2 -1 -1 -2 -1 -1 -1 -0 1 2 1 1 1 1 1 2 1 0 0 0 -0 -1 -1 -1 -1 -1 -2 -2 -2 -2 -2 -2 -2 -3 -3 -3 -3 -4 -4 -4 -4 -5
-3 -3 -3 -3 -3 -2 -2 -2 -1 -1 0 1 1 0 1 0 1 1 1 0 0 -0 -1 -1 -1 -1 -1 -2 -2 -3 -3 -3 -3 -3 -3 -4 -4 -4 -4 -4 -4 -5 -5 -5
-4 -4 -4 -3 -3 -3 -2 -2 -2 -1 -0 -0 1 -0 -1 -1 -1 -0 -0 0 -0 -1 -2 -2 -2 -2 -2 -2 -3 -3 -3 -4 -4 -4 -4 -4 -5 -5 -5 -6 -6 -6 -6 -7
-5 -5 -5 -4 -3 -3 -2 -2 -2 -2 -1 -1 -1 -2 -2 -2 -1 -1 -1 -1 -1 -1 -1 -2 -2 -1 -2 -3 -3 -3 -4 -5 -5 -5 -5 -5 -6 -6 -6 -6 -7 -7 -7 -8
-6 -6 -6 -5 -5 -4 -3 -3 -3 -3 -3 -2 -2 -2 -2 -3 -2 -2 -2 -2 -2 -2 -2 -2 -2 -2 -2 -3 -3 -4 -5 -6 -6 -6 -6 -6 -6 -7 -7 -7 -8 -8 -8 -8
-6 -6 -6 -6 -5 -5 -5 -6 -5 -4 -3 -3 -3 -3 -3 -3 -3 -3 -3 -2 -2 -2 -2 -2 -2 -2 -3 -4 -5 -5 -6 -6 -7 -7 -7 -7 -8 -8 -8 -9 -9 -9 -9 -9
-6 -7 -6 -6 -5 -5 -6 -6 -6 -5 -4 -4 -4 -4 -4 -4 -4 -3 -3 -3 -3 -3 -3 -3 -3 -3 -3 -6 -6 -7 -7 -7 -8 -8 -8 -9 -9 -9 -9 -9 -9 -9 -9 -9
-7 -7 -6 -6 -6 -6 -5 -6 -7 -6 -5 -5 -5 -5 -5 -5 -5 -5 -4 -4 -4 -4 -4 -4 -4 -5 -5 -7 -7 -8 -8 -8 -8 -8 -9 -10 -9 -9 -10 -9 -9 -9 -9 -10
-8 -7 -7 -7 -7 -6 -7 -6 -6 -7 -6 -6 -6 -6 -5 -6 -6 -6 -6 -5 -4 -4 -5 -5 -5 -6 -7 -7 -8 -9 -9 -9 -10 -10 -10 -10 -10 -10 -10 -10 -10 -10 -10 -11
-7 -8 -8 -8 -7 -7 -7 -7 -7 -7 -7 -7 -7 -7 -6 -6 -6 -6 -6 -5 -5 -5 -5 -6 -7 -7 -8 -9 -9 -10 -10 -10 -11 -11 -11 -11 -11 -10 -10 -10 -11 -11 -11 -12
-7 -7 -7 -7 -8 -7 -7 -7 -7 -7 -8 -7 -7 -7 -7 -6 -6 -6 -6 -6 -6 -6 -7 -7 -8 -9 -10 -10 -10 -11 -11 -11 -11 -11 -11 -11 -11 -11 -11 -11 -12 -12 -12 -12

GFSNGP_700_temp_147.txt.gz
Temp
-1 -1 -1 -0 -1 -3 -4 -3 -4 2 2 5 4 3 2 2 2 3 2 2 1 1 1 1 1 0 0 -0 0 -0 -0 -0 -0 -0 0 0 0 0 1 0 0 -0 -0 0
-1 1 -0 1 1 0 0 -1 -2 1 3 3 3 3 3 2 2 3 3 3 2 2 1 1 1 0 0 -0 -0 -0 -0 -1 -0 -0 -0 0 1 -0 -1 0 0 -0 -0 0
-3 -0 1 2 6 6 4 3 2 2 4 4 4 3 3 3 2 2 2 3 3 2 2 1 1 0 0 0 0 -0 -0 -0 -0 -0 -1 -1 -0 1 -1 -1 -1 -1 -1 -0
-5 -2 -3 5 4 3 3 4 3 4 4 3 3 3 2 2 2 2 2 2 2 2 2 2 1 1 0 -0 -0 -0 -0 -0 -1 -0 -1 -1 -1 -0 -0 -0 -1 -1 -1 -1
-5 -6 0 4 4 5 3 5 4 4 3 2 1 1 2 1 1 1 1 1 2 2 2 2 1 1 1 1 0 -0 -1 -1 -1 -1 -1 -1 -1 -1 -1 -1 -1 -0 -0 -0
-7 -7 -4 4 3 3 2 3 3 3 3 2 0 -0 1 -0 0 0 0 1 1 1 1 2 1 2 1 1 1 0 0 -0 -1 -1 -1 -1 -1 -1 -1 -1 -1 -1 -1 -1
-7 -7 -2 2 2 1 0 2 2 1 -0 -1 -1 -1 -1 -1 -1 -1 -0 -0 -0 0 1 1 1 1 1 1 1 1 1 0 -0 -1 -1 -1 -1 -1 -1 -1 -1 -1 -1 -1
-6 -8 -4 2 2 2 2 2 1 -1 -1 -1 -2 -0 -1 -1 -1 -1 -1 -1 -1 0 0 0 1 1 1 0 0 1 1 0 -0 -1 -1 -1 -1 -1 -1 -1 -1 -1 -1 -1
-1 -0 1 1 1 -0 -1 -0 -1 -1 -2 -2 -2 -1 -1 -2 -1 -1 -1 -1 -1 -1 -0 -0 -0 0 1 -1 0 0 0 0 0 -0 -1 -1 -2 -2 -2 -2 -2 -1 -1 -1
-3 -3 -1 -1 -1 -1 -1 -2 -2 -2 -2 -3 -3 -2 -2 -2 -2 -0 -0 -0 -1 -1 0 -0 -1 -1 -0 -0 -0 -0 -0 -0 -0 -0 -1 -1 -1 -2 -2 -2 -2 -2 -1 -1
-3 -4 -1 -1 -2 -2 -2 -4 -4 -4 -4 -4 -4 -3 -3 -2 -1 -1 -0 -0 -1 -1 -1 -0 -1 -1 -1 -1 -0 -0 -1 -1 -1 -0 -0 -0 -1 -2 -2 -2 -2 -2 -2 -2
-3 -3 -3 -2 -4 -5 -4 -4 -4 -4 -3 -4 -4 -4 -3 -3 -2 -2 -1 -0 -1 -0 -0 -0 -1 -1 -1 -1 -1 -0 -0 -1 -1 -1 -1 -1 -1 -1 -1 -2 -2 -2 -2 -2
-3 -2 -4 -5 -5 -5 -5 -4 -3 -3 -3 -3 -3 -2 -2 -2 -2 -2 -2 -2 -1 -1 -1 -1 -0 -0 -1 -1 -1 -1 -1 -1 -1 -1 -1 -1 -1 -1 -1 -1 -2 -2 -2 -2
-5 -5 -5 -5 -5 -5 -5 -4 -4 -3 -2 -2 -3 -2 -2 -1 -1 -1 -1 -2 -2 -2 -1 -1 -1 -0 -1 -1 -1 -1 -1 -1 -1 -1 -2 -2 -2 -2 -2 -2 -2 -2 -2 -2
-5 -6 -6 -5 -4 -5 -5 -4 -4 -3 -3 -2 -3 -3 -2 -2 -2 -1 -1 -2 -2 -2 -2 -1 -1 -1 -1 -1 -1 -1 -2 -1 -2 -2 -2 -2 -2 -2 -2 -2 -3 -3 -3 -3
-6 -5 -5 -5 -5 -5 -4 -4 -4 -3 -3 -4 -4 -3 -3 -3 -2 -2 -2 -2 -2 -2 -2 -2 -2 -2 -2 -2 -2 -2 -2 -2 -2 -2 -2 -2 -3 -3 -3 -3 -3 -4 -4 -4
-6 -6 -5 -5 -5 -6 -5 -5 -5 -5 -4 -4 -3 -3 -2 -2 -2 -3 -3 -2 -2 -3 -3 -3 -2 -3 -3 -3 -2 -2 -3 -3 -3 -2 -2 -3 -3 -3 -3 -4 -4 -4 -5 -5
-8 -7 -7 -7 -7 -6 -6 -5 -5 -5 -5 -4 -4 -4 -3 -3 -3 -3 -3 -3 -4 -4 -5 -5 -4 -3 -4 -4 -3 -3 -3 -3 -3 -3 -3 -3 -3 -3 -4 -4 -5 -5 -5 -6
-8 -8 -7 -7 -7 -7 -7 -7 -6 -6 -5 -5 -6 -5 -4 -4 -4 -4 -4 -4 -4 -4 -4 -5 -3 -3 -4 -5 -4 -3 -4 -4 -3 -3 -3 -3 -4 -4 -4 -5 -6 -6 -7 -7
-8 -8 -7 -7 -7 -7 -7 -7 -7 -7 -6 -6 -7 -7 -6 -6 -5 -4 -5 -5 -6 -5 -4 -3 -3 -3 -4 -4 -4 -3 -4 -4 -4 -4 -4 -4 -5 -5 -5 -5 -6 -6 -7 -7
-10 -9 -8 -8 -7 -8 -7 -7 -7 -7 -7 -7 -7 -7 -7 -7 -7 -6 -7 -7 -7 -6 -5 -4 -3 -4 -4 -4 -4 -4 -4 -4 -4 -4 -5 -5 -6 -6 -6 -6 -7 -7 -8 -8
-10 -9 -9 -9 -8 -7 -8 -8 -7 -7 -7 -7 -7 -8 -8 -8 -8 -7 -7 -7 -7 -6 -6 -6 -6 -5 -4 -3 -3 -4 -4 -5 -5 -5 -6 -7 -7 -7 -7 -7 -8 -9 -9 -9
-10 -10 -9 -9 -10 -9 -8 -8 -8 -7 -8 -8 -8 -8 -8 -8 -7 -7 -7 -6 -6 -6 -6 -6 -5 -5 -5 -5 -4 -4 -5 -6 -6 -7 -7 -7 -8 -8 -8 -9 -9 -10 -11 -11
-10 -10 -10 -9 -9 -9 -8 -8 -8 -7 -8 -7 -8 -9 -8 -8 -7 -7 -7 -7 -7 -6 -7 -7 -6 -6 -5 -5 -5 -5 -6 -6 -7 -8 -8 -8 -9 -9 -9 -10 -10 -11 -11 -12
-11 -11 -11 -10 -9 -9 -9 -9 -8 -8 -8 -8 -8 -8 -8 -8 -8 -8 -8 -7 -7 -8 -7 -7 -6 -6 -6 -6 -7 -7 -7 -8 -8 -9 -9 -9 -10 -10 -10 -11 -11 -12 -12 -12
-12 -12 -11 -11 -10 -9 -9 -9 -9 -8 -7 -8 -8 -8 -8 -8 -8 -8 -8 -7 -8 -7 -7 -7 -7 -6 -6 -7 -8 -9 -9 -9 -9 -9 -10 -10 -10 -11 -11 -11 -12 -12 -12 -12
-12 -12 -12 -11 -10 -10 -9 -9 -8 -8 -8 -7 -8 -9 -8 -8 -8 -8 -8 -8 -7 -7 -7 -7 -8 -7 -7 -8 -9 -9 -9 -10 -10 -10 -11 -11 -11 -12 -12 -12 -12 -12 -12 -12